Погода в Благовещенске

Погода в Благовещенске : погода сейчас, прогноз погоды и архив. Всё, что Вы хотите узнать о погоде в Благовещенске!

Хотите узнать прогноз погоды в Благовещенске? Тогда Вам сюда: Погода в Благовещенске

Поиск расширенной информации на нашем сайте:

Другие новости

Новости СМИ2

Главная страница сайта

Новости сайта

02.10.2013

Напоминаем, что на нашем новом сайте вы можете получить высокодетализированные прогнозы погоды по пунктам России, СНГ и мира (включающие важные для авиации метеовеличины, такие как направление и скорость ветра, видимость, явления погоды, количество и форма облачности, нижняя и верхняя граница облачности), а также ознакомиться с разнообразными материалами по авиационной метеорологии и подборкой полезных ссылок на эту тему.

Сайт Метеоцентр.Азия посвящён разработке технологий оптимизации авиаметеорологического обслуживания, включая проектирование и перспективное создание нескольких автоматизированных авиаметеорологических систем:
- система выпуска высокодетальных прогностических карт явлений погоды для нижнего воздушного пространства по России и ближнему зарубежью;
- система верификации прогнозов TAF (выпускаемых синоптиками официальных АМСГ РФ и ближнего зарубежья) и AUTOTAF (выпускаемых сайтом Метеоцентр.Азия) - выявление ошибок, онлайн-сопоставление с фактической погодой METAR, автоматическое внесение коррективов в прогнозы при резком отклонении фактической погоды от прогноза, подсчёт оправдываемости прогнозов по элементам и в целом;
- система обработки, анализа и отображения авиаметеорологической информации для применения провайдерами метеорологической информации.

Рекомендуем: новости гостиничного бизнеса http://biznes-center.com

Погода в Благовещенске - сегодня

Время (UTC), дата Ветер
(°,м/с) 
Видим.   Явления Облачность Т
(°С)
Тd
(°С)
f(%) Тe
(°С)
Pmin
(гПа)
dP
(гПа)
Po
(мм)
O2
(г/м3)
Тmin Tmax R s Состояние
почвы
21 25.05.17 070 (В) 20000 м    9/4 1000 м верхняя 
[Sc|Ci fib]
+10.9 +4.3 64 +12  1009.5  -0.3  742  287           
00 26.05.17 180 (Ю) 20000 м    3/0 средняя, верхняя 
[Ac cast|Ci fib]
+19.7 +3.5 34 +21  1008.7  -0.3  742  278  +10.6        сухая 
03 26.05.17 230 (ЮЗ) 5{10}  20000 м    6/0 средняя 
[Ac cast]
+24.3 +1 22 +24  1007.1  -1.2  741  274           
06 26.05.17 250 (З) 4-11{11}  20000 м    3/0 средняя 
[Ac cast]
+26.5 +2.2 21 +27  1005.5  -1.5  740  271           
09 26.05.17 240 (ЮЗ) 4{11}  20000 м    3/0 верхняя 
[Ci fib]
+26.4 +1.8 20 +26  1004.6  -0.9  739  271           
12 26.05.17 230 (ЮЗ) 2{11}  20000 м    ясно 
+21.1 +2.2 29 +21  1005.6  0.7  740  276    +27.1       
15 26.05.17 260 (З) н/о    ясно 
+16.2 +2.2 39 +17  1006.6  0.6  740  281           
18 26.05.17 120 (ЮВ) н/о    1/0 средняя 
[Ac trans]
+13.1 +3.6 52 +14  1006.6  -0.2  740  284           
21 26.05.17 080 (В) 20000 м    10/0 средняя, верхняя 
[Ac trans|Ci fib]
+12.7 +5.2 60 +14  1006.8  0.1  740  284           
00 27.05.17 220 (ЮЗ) 20000 м    10/0 средняя, верхняя 
[Ac trans|Ci fib]
+21.2 +2.4 29 +21  1006.3  0.1  740  276  +11.1        сухая 
03 27.05.17 210 (ЮЗ) 20000 м    10/4 600 м средняя, верхняя 
[Cu hum|Ac As|Ci]
+26.4 +4.2 24 +26  1004.5  -1.4  739  271           
06 27.05.17 210 (ЮЗ) 4{10}  20000 м    10/0 средняя, верхняя 
[Ac trans|Cs]
+28.5 +5.1 23 +29  1002.2  -2.1  737  268           
12 27.05.17 200 (Ю) 3{10}  20000 м    10/0 средняя, верхняя 
[Ac As|Cs]
+24.7 +4.9 28 +25  1000.3  -0.4  736  271    +29.6       
15 27.05.17 170 (Ю) н/о    8/0 средняя 
[Ac trans]
+20.3 +5.6 38 +20  999.9  -0.6  735  275           
18 27.05.17 180 (Ю) н/о    4/0 верхняя 
[Ci fib]
+16.9 +5.8 48 +17  999.1  -1.1  735  278           
21 27.05.17 160 (Ю) 20000 м    10/0 средняя, верхняя 
[Ac As|Ci fib]
+15.8 +6 52 +17  998  -1.2  734  278           
00 28.05.17 200 (Ю) 20000 м    10/8 600 м кучево-дожд., средняя 
[Cb cap|Ac As]
+20.2 +5.8 39 +20  996.3  -1.3  733  274  +15.8        сухая 
03 28.05.17 250 (З) 20000 м    10/8 600 м кучево-дожд., средняя 
[Cb cap|Ac As]
+20.9 +7.8 43 +21  995.2  -1.1  732  273           
12 28.05.17 260 (З) 9-15{18}  10 км  слаб. ливневой дождь{гроза}  10/10 600 м кучево-дожд. 
[Cb cap]
+7.6 +4.4 80 +5  996.9  3.2  733  286    +21.2     
21 28.05.17 260 (З) 4{11}  20000 м    3/1 1000 м верхняя 
[Sc|Ci fib]
+8.2 +0.1 57 +7  998.4  0.2  734  287           
00 29.05.17 270 (З) 8-14{15}  20000 м    ясно 
+13.2 -4.5 29 +12  997.5  -0.5  733  282      0.0    влажная 
09 29.05.17 260 (З) 5{16}  20000 м    8/6 600 м кучево-дожд., средняя, верхняя 
[Cb cap|Ac cast|Ci fib]
+18 -4.8 21 +18  994.9  -0.4  732  277           
12 29.05.17 040 (СВ) 5{11}  20000 м    6/6 600 м 
[Sc diur, vesp]
+11.6 +1.3 49 +11  996.2  0.7  732  283    +19.3       
15 29.05.17 300 (СЗ) н/о    1/0 средняя 
[Ac trans]
+6.9 +2.3 72 +7  996.6  0.1  732  287           
18 29.05.17 290 (З) н/о    ясно 
+3.7 +1 82 +3  996.3  -0.6  732  291           
Время (UTC), дата Ветер
(°,м/с) 
Видим.   Явления Облачность Т
(°С)
Тd
(°С)
f(%) Тe
(°С)
Pmin
(гПа)
dP
(гПа)
Po
(мм)
O2
(г/м3)
Тmin Tmax R s Состояние
почвы

Для получения пояснительной информации подведите курсор к названию столбца.

ПОГОДА в Благовещенске - архив

Всё, что Вы хотите узнать о погоде в Благовещенске - удобно и подробно!

Выберите нужную дату (начиная с 1 января 2015* года) и нажмите кнопку "Найти".
Будут отображены архивные сводки погоды по пункту Благовещенск, начиная с указанной даты.


Отображать данные в формате CSV (для использования в таблицах Excel)


Внимание! Наш архив погоды предназначен исключительно для личного некоммерческого использования в познавательных целях. Если Вам необходимы официальные справки о состоянии погоды (для производственных, юридических, коммерческих и т.п. целей), обращайтесь в органы Росгидромета.

*Примечание: данная дата относится к архиву по метеостанциям СССР (Россия, СНГ, Балтия).
Архив по метеостанциям Зарубежной Европы и Азии (кроме Китая) хранится 10 дней, по другим регионам земного шара (Китай, Африка, Америка, Австралия, Океания) - 1 день.

Благовещенск - район местоположения метеостанции


Название, широта, долгота, высота метеостанции:
Благовещенск 50.2°ш. 127.6°д. 132 м над ур. моря [Российская Федерация]

Дополнительная информация

В oтличие oт бoльшинства пoгoдных сайтoв мы публикуем пoдрoбную метеoинфoрмацию в детальнoм прoфессиoнальнoм фoрмате.

Характеристики температуры и влажнoсти вoздуха измеряются на высoте 2 м в тени вдали oт зданий и деревьев.
Скoрoсть ветра измеряется на высoте 10 м (на урoвне рoста челoвека скoрoсть ветра ниже в 1.5-2 раза). Если метеoстанция нахoдится в гoрoде или в лесу, тo скoрoсть ветра занижена на 2-4 м/с пo сравнению с oткрытым местoм. Скoрoсть ветра над акватoриями крупных рек и oзёр, а также на вершинах хoлмoв на 2-5 м/с выше, чем в oбычных услoвиях.
Атмoсфернoе давление в разных тoчках местнoсти мoжет значительнo oтличаться oт давления на метеoстанции, в зависимoсти oт услoвий рельефа (при пoдъёме на 10 м давление пoнижается примернo на 1 мм рт.ст.).